STARLINK-1564, 46058

Orbit data source: Space-Track

STARLINK-1564, 46058 is a payload satellite owned by SpaceX/Seattle (US) in LEO that was launched on Fri, 07 Aug 2020 UTC via an FALCON 9 launch vehicle from the Air Force Eastern Test Range (AFETR). Payload-class satellites include a variety of spacecraft equipped with specific instruments for various scientific and technological missions. These include communications satellites like Starlink; space stations such as the ISS; scientific satellites like the Hubble; Earth observation satellites from companies like Planet Labs, Umbra, and HawkEye 360; GPS; miniature CubeSats for education and research; and military/defense satellites.

Loading next visibility...
Identifier
46058, 2020-055AH
Orbit
LEO
Last TLE update
1 day ago
Origin
Manufacturer
SpaceX/Seattle
Mission
Operational Commercial Communications
Bus & Motor
STARLINK, Unknown motor
Mass
260 kg wet, ~248 kg dry
Launch date (UTC)
2020-08-07 (5 years ago)
Launch vehicle
FALCON 9
Launch site
Air Force Eastern Test Range (AFETR)
Object type
Payload
Rocket body
Debris
Shape & HBR
Box + 1 Pan, 8.86 m
Radar Cross Section
13.562 m², Large (>1 m²)

Expand to show TLE details & history

TLE from 1 day ago
0 STARLINK-1564
1 46058U 20055AH  25181.24304431  .00000923  00000-0  80857-4 0  9999
2 46058  53.0537 170.3580 0001278  77.7556 282.3576 15.06399383270972
Epoch: 2025-06-30T05:49Z
TLE epoch observation values (Epoch: 2025-06-30T05:49:59.028Z)
Latitude
-0.00002°
Longitude
164.30639°
Altitude
547.903 km
Speed
7.589 km/s
True Right ascension
11h 21m 25s
True Declination
0° 00' 00"
Sunlit
Object was in daylight at epoch
Visualization orbit readout
Latitude
-29.42365°
Longitude
4.60987°
Altitude
556.759 km
Speed
7.583 km/s
Apparent Right ascension
03h 09m 05s
Apparent Declination
-42° 23' 60"
Sunlit
Object is in daylight
Visualization observer readout
Local Sidereal Time
18:18:37
Azimuth
109.866° ESE
Elevation
-54.702°
Doppler factor
1
Orbital elements
Apogee altitude
548.369 km
Perigee altitude
546.599 km
Semi-major axis
6,925.621 km
Eccentricity
0.00013
Inclination
53.0537°
RAAN
170.358°
Arg. of periapsis
77.7556°
True anomaly
Unknown
Mean anomaly
282.3576°
Eccentric anomaly
Unknown
Mean motion
3.76578 °/min
Orbital period
95.6 mins
BSTAR
0.000080857
Loading maneuver chart data...
Loading SW <> Apogee altitude chart data...
Loading historical data...
Loading historical data...
Loading historical data...
Loading historical data...
Loading historical data...
Loading historical data...
Loading historical data...

STARLINK-1564 Visibility forecast

Observer location: undefined°, undefined°

Span
Click to sort rows by Start time (UTC) header in descending order
Start Az.
Max El. time (UTC)
Max El. Az.
Max El.
End time (UTC)
End Az.
6 mins2025-07-01 07:46:47.992Z329.533° NNW2025-07-01 07:49:47.992Z31.858° NE29.164°2025-07-01 07:52:47.992Z91.408° ESE
6 mins2025-07-01 09:26:47.992Z286.075° WNW2025-07-01 09:28:47.992Z245.149° WSW30.85°2025-07-01 09:32:47.992Z160.239° S
6 mins2025-07-02 00:59:47.992Z190.83° SSW2025-07-02 01:01:47.992Z145.959° SSE31.615°2025-07-02 01:05:47.992Z64.932° ENE
5 mins2025-07-02 02:39:47.992Z282.406° WNW2025-07-02 02:41:47.992Z333.887° NNW28.919°2025-07-02 02:44:47.992Z31.78° NE
|